Simultaneous Nadir Overpasses (SNOs) Predictions

Prediction of SNOs between LANDSAT-8 and METOP-B Satellite Orbit:

Table of predicted SNOs for the next 14.0 days since TLE Epoch: 3/13/2021
Index Date (LANDSAT-8) Time (LANDSAT-8) Lat,Lon (LANDSAT-8) SZA (LANDSAT-8 ) Date (METOP-B) Time (METOP-B) Lat,Lon (METOP-B) SZA (METOP-B ) Distance(km) Time Diff (sec)
1 03/14/2021 01:08:07 -81.11, 22.38 94.62 03/14/2021 01:07:00 -81.11, 22.38 94.65 0.06 67
2 03/14/2021 01:57:32 81.14,-169.51 85.44 03/14/2021 01:57:38 81.15,-169.38 85.45 2.13 6
3 03/16/2021 20:42:20 -81.12, 88.98 95.69 03/16/2021 20:41:21 -81.12, 88.82 95.73 2.94 59
4 03/16/2021 21:31:46 81.13,-103.30 84.31 03/16/2021 21:32:00 81.13,-103.31 84.32 0.57 14
5 03/19/2021 16:16:34 -81.11, 155.19 96.81 03/19/2021 16:15:42 -81.12, 155.24 96.82 1.26 52
6 03/19/2021 17:05:59 81.14, -36.76 83.24 03/19/2021 17:06:21 81.14, -36.88 83.24 2.11 22
7 03/22/2021 11:50:46 -81.12,-138.28 97.89 03/22/2021 11:50:02 -81.12,-138.35 97.91 1.19 44
8 03/22/2021 12:40:11 81.14, 29.74 82.16 03/22/2021 12:40:40 81.15, 29.91 82.19 2.91 29
9 03/25/2021 07:24:59 -81.12, -71.79 98.96 03/25/2021 07:24:23 -81.11, -71.97 99.00 3.10 36



Historial Predications of SNOs between LANDSAT-8 and METOP-B
